SWA1279 KLAX-KDEN

Flight info

Callsign SWA1279
Flight time 1h 59m
Altitude 37000
Route ORCKA5 LAS J146 DICEE BUMMP SSKII4
Aircraft B38M/M-SADE2E3GHIJ4J7P2RWZ/LB1D1

Departure

Time 2026-05-06 16:03
Airport Los Angeles International Airport (KLAX)

Arrival

Time 2026-05-06 18:02
Airport Denver International Airport (KDEN)
Time Latitude Longitude Altitude Speed Heading
2026-05-06 15:34 33.94730 -118.40064 95 ft 0 kts 263°
2026-05-06 15:54 33.94730 -118.40061 95 ft 2 kts 263°
2026-05-06 15:54 33.94735 -118.40033 97 ft 4 kts 270°
2026-05-06 15:55 33.94727 -118.40015 97 ft 4 kts 319°
2026-05-06 15:55 33.94707 -118.40009 96 ft 4 kts 17°
2026-05-06 15:55 33.94688 -118.40014 95 ft 0 kts
2026-05-06 16:00 33.94707 -118.40014 98 ft 9 kts
2026-05-06 16:00 33.94747 -118.40012 97 ft 5 kts
2026-05-06 16:00 33.94811 -118.40008 95 ft 13 kts 347°
2026-05-06 16:00 33.94869 -118.40075 95 ft 12 kts 333°
2026-05-06 16:01 33.94919 -118.40037 96 ft 10 kts 75°
2026-05-06 16:01 33.94936 -118.39946 96 ft 8 kts 59°
2026-05-06 16:01 33.94964 -118.39917 96 ft 6 kts 24°
2026-05-06 16:01 33.95017 -118.39915 96 ft 9 kts 346°
2026-05-06 16:02 33.95040 -118.39975 98 ft 10 kts 263°
2026-05-06 16:02 33.95027 -118.40103 98 ft 28 kts 263°
2026-05-06 16:02 33.94977 -118.40594 101 ft 103 kts 262°
2026-05-06 16:02 33.94856 -118.41785 131 ft 178 kts 263°
2026-05-06 16:03 33.94711 -118.43305 1122 ft 176 kts 263°
2026-05-06 16:03 33.94573 -118.44741 2322 ft 173 kts 263°
2026-05-06 16:03 33.94433 -118.46145 3124 ft 183 kts 264°
2026-05-06 16:03 33.94267 -118.47747 3821 ft 205 kts 265°
2026-05-06 16:04 33.94072 -118.49540 4567 ft 225 kts 265°
2026-05-06 16:04 33.93852 -118.51483 5374 ft 242 kts 264°
2026-05-06 16:04 33.93616 -118.53530 6372 ft 251 kts 264°
2026-05-06 16:04 33.93238 -118.55602 7351 ft 260 kts 245°
2026-05-06 16:05 33.92085 -118.57361 8016 ft 283 kts 215°
2026-05-06 16:05 33.90266 -118.58285 8950 ft 285 kts 186°
2026-05-06 16:05 33.88320 -118.58181 10122 ft 280 kts 160°
2026-05-06 16:05 33.86590 -118.57095 10811 ft 289 kts 132°
2026-05-06 16:06 33.85504 -118.55046 11282 ft 296 kts 99°
2026-05-06 16:06 33.85552 -118.52647 12272 ft 283 kts 66°
2026-05-06 16:06 33.86569 -118.50720 13537 ft 270 kts 43°
2026-05-06 16:06 33.87974 -118.49268 14617 ft 263 kts 37°
2026-05-06 16:07 33.89396 -118.47888 15504 ft 265 kts 39°
2026-05-06 16:07 33.90788 -118.46390 16183 ft 273 kts 41°
2026-05-06 16:07 33.92171 -118.44771 16902 ft 278 kts 43°
2026-05-06 16:07 33.93432 -118.43099 17810 ft 277 kts 49°
2026-05-06 16:08 33.94553 -118.41219 18666 ft 276 kts 53°
2026-05-06 16:08 33.95654 -118.39317 19341 ft 279 kts 51°
2026-05-06 16:08 33.96787 -118.37379 19860 ft 287 kts 53°
2026-05-06 16:08 33.97901 -118.35338 20329 ft 298 kts 54°
2026-05-06 16:09 33.99066 -118.33203 20669 ft 311 kts 53°
2026-05-06 16:09 34.00277 -118.31016 21259 ft 314 kts 53°
2026-05-06 16:09 34.01502 -118.28828 21904 ft 317 kts 53°
2026-05-06 16:09 34.02749 -118.26616 22517 ft 320 kts 53°
2026-05-06 16:10 34.04007 -118.24390 23110 ft 323 kts 53°
2026-05-06 16:10 34.05281 -118.22138 23693 ft 326 kts 53°
2026-05-06 16:10 34.06564 -118.19870 24197 ft 329 kts 53°
2026-05-06 16:10 34.07851 -118.17595 24696 ft 330 kts 53°
2026-05-06 16:11 34.09149 -118.15301 25194 ft 332 kts 53°
2026-05-06 16:11 34.10452 -118.12994 25692 ft 334 kts 53°
2026-05-06 16:11 34.11746 -118.10702 26195 ft 336 kts 53°
2026-05-06 16:11 34.13064 -118.08367 26682 ft 337 kts 53°
2026-05-06 16:12 34.14386 -118.06023 27153 ft 339 kts 53°
2026-05-06 16:12 34.15718 -118.03658 27579 ft 342 kts 53°
2026-05-06 16:12 34.17027 -118.01334 28027 ft 343 kts 53°
2026-05-06 16:12 34.17934 -117.99723 28336 ft 345 kts 53°
2026-05-06 16:13 34.19406 -117.97104 28834 ft 346 kts 54°
2026-05-06 16:13 34.20726 -117.94757 29249 ft 349 kts 53°
2026-05-06 16:13 34.22065 -117.92372 29709 ft 350 kts 54°
2026-05-06 16:13 34.23435 -117.89933 30084 ft 353 kts 54°
2026-05-06 16:14 34.24815 -117.87473 30471 ft 355 kts 53°
2026-05-06 16:14 34.26036 -117.85295 30798 ft 356 kts 53°
2026-05-06 16:14 34.27426 -117.82815 31167 ft 356 kts 53°
2026-05-06 16:14 34.28820 -117.80327 31490 ft 357 kts 53°
2026-05-06 16:15 34.30173 -117.77909 31774 ft 359 kts 53°
2026-05-06 16:15 34.31575 -117.75404 32180 ft 359 kts 53°
2026-05-06 16:15 34.32973 -117.72900 32519 ft 361 kts 53°
2026-05-06 16:15 34.34167 -117.70763 32784 ft 362 kts 53°
2026-05-06 16:16 34.35626 -117.68275 33109 ft 363 kts 52°
2026-05-06 16:16 34.37120 -117.65793 33421 ft 366 kts 51°
2026-05-06 16:16 34.38600 -117.63326 33741 ft 367 kts 52°
2026-05-06 16:16 34.40096 -117.60819 34082 ft 368 kts 52°
2026-05-06 16:17 34.41596 -117.58304 34351 ft 370 kts 52°
2026-05-06 16:17 34.43105 -117.55772 34578 ft 372 kts 52°
2026-05-06 16:17 34.44625 -117.53219 34780 ft 375 kts 52°
2026-05-06 16:17 34.46155 -117.50649 35071 ft 377 kts 52°
2026-05-06 16:18 34.47171 -117.48940 35227 ft 379 kts 52°
2026-05-06 16:18 34.48714 -117.46345 35467 ft 381 kts 52°
2026-05-06 16:18 34.50270 -117.43725 35666 ft 384 kts 52°
2026-05-06 16:18 34.51833 -117.41091 35878 ft 386 kts 52°
2026-05-06 16:19 34.53410 -117.38431 36089 ft 389 kts 52°
2026-05-06 16:19 34.54991 -117.35763 36281 ft 391 kts 52°
2026-05-06 16:19 34.56581 -117.33079 36481 ft 393 kts 52°
2026-05-06 16:19 34.58180 -117.30377 36673 ft 395 kts 52°
2026-05-06 16:20 34.59787 -117.27659 36860 ft 398 kts 52°
2026-05-06 16:20 34.61402 -117.24925 37040 ft 400 kts 52°
2026-05-06 16:20 34.63029 -117.22169 37160 ft 403 kts 53°
2026-05-06 16:20 34.64673 -117.19383 37154 ft 410 kts 53°
2026-05-06 16:21 34.68042 -117.13666 37085 ft 421 kts 53°
2026-05-06 16:21 34.71452 -117.07870 37091 ft 421 kts 53°
2026-05-06 16:22 34.74855 -117.02075 37098 ft 421 kts 53°
2026-05-06 16:22 34.78260 -116.96267 37104 ft 421 kts 53°
2026-05-06 16:23 34.81662 -116.90456 37108 ft 422 kts 53°
2026-05-06 16:23 34.85027 -116.84697 37121 ft 419 kts 53°
2026-05-06 16:24 34.88431 -116.78866 37111 ft 420 kts 53°
2026-05-06 16:24 34.91802 -116.73126 37109 ft 419 kts 49°
2026-05-06 16:25 34.95721 -116.67876 37101 ft 419 kts 46°
2026-05-06 16:25 34.99675 -116.62662 37088 ft 419 kts 46°
2026-05-06 16:26 35.03626 -116.57454 37076 ft 419 kts 46°
2026-05-06 16:26 35.07584 -116.52228 37069 ft 419 kts 46°
2026-05-06 16:27 35.11544 -116.46992 37065 ft 419 kts 46°
2026-05-06 16:27 35.15496 -116.41760 37076 ft 419 kts 46°
2026-05-06 16:28 35.19446 -116.36521 37082 ft 418 kts 46°
2026-05-06 16:28 35.23377 -116.31299 37092 ft 417 kts 46°
2026-05-06 16:29 35.27313 -116.26064 37069 ft 417 kts 46°
2026-05-06 16:29 35.31247 -116.20822 37083 ft 419 kts 46°
2026-05-06 16:30 35.34521 -116.16454 37058 ft 418 kts 46°
2026-05-06 16:30 35.39115 -116.10315 37074 ft 418 kts 46°
2026-05-06 16:31 35.43049 -116.05050 37077 ft 418 kts 46°
2026-05-06 16:31 35.46978 -115.99782 37079 ft 418 kts 46°
2026-05-06 16:32 35.50880 -115.94543 37094 ft 419 kts 46°
2026-05-06 16:32 35.54800 -115.89270 37084 ft 419 kts 46°
2026-05-06 16:33 35.58726 -115.83985 37083 ft 418 kts 46°
2026-05-06 16:34 35.64589 -115.76022 37083 ft 419 kts 47°
2026-05-06 16:34 35.68470 -115.70689 37084 ft 419 kts 47°
2026-05-06 16:35 35.72353 -115.65351 37094 ft 419 kts 47°
2026-05-06 16:35 35.76238 -115.60000 37092 ft 418 kts 47°
2026-05-06 16:36 35.80110 -115.54660 37088 ft 419 kts 47°
2026-05-06 16:36 35.83986 -115.49306 37092 ft 418 kts 46°
2026-05-06 16:37 35.87847 -115.43963 37082 ft 417 kts 46°
2026-05-06 16:37 35.91702 -115.38620 37090 ft 417 kts 47°
2026-05-06 16:38 35.95555 -115.33272 37087 ft 417 kts 47°
2026-05-06 16:38 35.99410 -115.27913 37103 ft 417 kts 47°
2026-05-06 16:39 36.03262 -115.22549 37083 ft 417 kts 47°
2026-05-06 16:39 36.07083 -115.17150 37075 ft 418 kts 52°
2026-05-06 16:39 36.08456 -115.13972 37088 ft 422 kts 65°
2026-05-06 16:40 36.09544 -115.10592 37057 ft 424 kts 64°
2026-05-06 16:40 36.11713 -115.03818 37081 ft 424 kts 65°
2026-05-06 16:41 36.13825 -114.97012 37033 ft 423 kts 65°
2026-05-06 16:41 36.15904 -114.90249 37023 ft 423 kts 65°
2026-05-06 16:42 36.17991 -114.83447 37016 ft 423 kts 65°
2026-05-06 16:42 36.20078 -114.76646 36998 ft 423 kts 65°
2026-05-06 16:43 36.22161 -114.69837 36993 ft 423 kts 65°
2026-05-06 16:43 36.24242 -114.63025 36971 ft 423 kts 65°
2026-05-06 16:44 36.26316 -114.56215 36965 ft 423 kts 65°
2026-05-06 16:44 36.28389 -114.49392 36967 ft 423 kts 65°
2026-05-06 16:45 36.30459 -114.42567 36969 ft 423 kts 65°
2026-05-06 16:45 36.32522 -114.35745 36981 ft 424 kts 65°
2026-05-06 16:46 36.34589 -114.28894 36970 ft 424 kts 65°
2026-05-06 16:46 36.36653 -114.22035 36974 ft 424 kts 65°
2026-05-06 16:47 36.38711 -114.15180 36973 ft 424 kts 65°
2026-05-06 16:47 36.40768 -114.08311 36979 ft 424 kts 65°
2026-05-06 16:48 36.42822 -114.01439 36983 ft 426 kts 65°
2026-05-06 16:48 36.44880 -113.94533 36995 ft 426 kts 65°
2026-05-06 16:49 36.46930 -113.87638 37003 ft 426 kts 65°
2026-05-06 16:49 36.48975 -113.80741 37001 ft 426 kts 65°
2026-05-06 16:50 36.51020 -113.73830 37032 ft 426 kts 65°
2026-05-06 16:50 36.53072 -113.66879 37044 ft 428 kts 65°
2026-05-06 16:51 36.55117 -113.59929 37011 ft 428 kts 65°
2026-05-06 16:51 36.57164 -113.52959 37011 ft 429 kts 65°
2026-05-06 16:52 36.59207 -113.45984 37019 ft 429 kts 65°
2026-05-06 16:52 36.61247 -113.39007 37020 ft 431 kts 66°
2026-05-06 16:53 36.63291 -113.31981 37024 ft 432 kts 66°
2026-05-06 16:53 36.65331 -113.24950 37018 ft 431 kts 66°
2026-05-06 16:54 36.67367 -113.17919 37039 ft 431 kts 66°
2026-05-06 16:54 36.69398 -113.10886 37060 ft 431 kts 66°
2026-05-06 16:55 36.71432 -113.03825 37078 ft 434 kts 66°
2026-05-06 16:55 36.73467 -112.96740 37085 ft 434 kts 66°
2026-05-06 16:56 36.75499 -112.89651 37088 ft 434 kts 66°
2026-05-06 16:56 36.77526 -112.82558 37072 ft 434 kts 66°
2026-05-06 16:57 36.79551 -112.75455 37066 ft 436 kts 66°
2026-05-06 16:57 36.81582 -112.68312 37037 ft 438 kts 66°
2026-05-06 16:58 36.83612 -112.61150 37011 ft 438 kts 66°
2026-05-06 16:58 36.85624 -112.54036 36993 ft 437 kts 66°
2026-05-06 16:59 36.87661 -112.46822 36994 ft 437 kts 66°
2026-05-06 16:59 36.89676 -112.39637 36988 ft 440 kts 67°
2026-05-06 17:00 36.91690 -112.32457 36978 ft 441 kts 67°
2026-05-06 17:00 36.93712 -112.25240 36977 ft 440 kts 67°
2026-05-06 17:01 36.95732 -112.18010 36963 ft 440 kts 67°
2026-05-06 17:01 36.97747 -112.10776 36960 ft 442 kts 67°
2026-05-06 17:02 36.99776 -112.03475 36938 ft 446 kts 67°
2026-05-06 17:02 37.01805 -111.96150 36930 ft 445 kts 67°
2026-05-06 17:03 37.03829 -111.88827 36917 ft 445 kts 67°
2026-05-06 17:03 37.05848 -111.81500 36928 ft 445 kts 66°
2026-05-06 17:04 37.07863 -111.74168 36900 ft 446 kts 67°
2026-05-06 17:04 37.09553 -111.68004 36902 ft 447 kts 67°
2026-05-06 17:05 37.11563 -111.60650 36906 ft 447 kts 67°
2026-05-06 17:05 37.13573 -111.53278 36988 ft 447 kts 67°
2026-05-06 17:06 37.15574 -111.45919 36971 ft 446 kts 67°
2026-05-06 17:06 37.17569 -111.38561 36989 ft 446 kts 67°
2026-05-06 17:07 37.19552 -111.31231 36937 ft 446 kts 67°
2026-05-06 17:07 37.21542 -111.23858 36918 ft 446 kts 66°
2026-05-06 17:08 37.24151 -111.16871 36904 ft 443 kts 60°
2026-05-06 17:08 37.26915 -111.09908 36919 ft 445 kts 59°
2026-05-06 17:09 37.29665 -111.02993 36901 ft 446 kts 59°
2026-05-06 17:09 37.32428 -110.96029 36902 ft 445 kts 59°
2026-05-06 17:10 37.35187 -110.89062 36911 ft 446 kts 59°
2026-05-06 17:10 37.37943 -110.82084 36898 ft 445 kts 59°
2026-05-06 17:11 37.40705 -110.75080 36904 ft 449 kts 60°
2026-05-06 17:11 37.43478 -110.68030 36891 ft 449 kts 60°
2026-05-06 17:12 37.46245 -110.60978 36905 ft 450 kts 60°
2026-05-06 17:12 37.49013 -110.53910 36908 ft 450 kts 60°
2026-05-06 17:13 37.51775 -110.46840 36946 ft 450 kts 60°
2026-05-06 17:13 37.54547 -110.39727 36920 ft 454 kts 60°
2026-05-06 17:14 37.57325 -110.32584 36921 ft 453 kts 60°
2026-05-06 17:14 37.60094 -110.25448 36951 ft 453 kts 60°
2026-05-06 17:15 37.62862 -110.18300 36931 ft 453 kts 60°
2026-05-06 17:15 37.65619 -110.11159 36972 ft 455 kts 60°
2026-05-06 17:16 37.68403 -110.03933 36975 ft 458 kts 60°
2026-05-06 17:16 37.71182 -109.96705 36974 ft 458 kts 60°
2026-05-06 17:17 37.73959 -109.89466 36982 ft 458 kts 60°
2026-05-06 17:17 37.76732 -109.82219 36984 ft 458 kts 60°
2026-05-06 17:18 37.79509 -109.74942 36972 ft 461 kts 60°
2026-05-06 17:18 37.82295 -109.67626 37020 ft 462 kts 60°
2026-05-06 17:19 37.85081 -109.60295 37030 ft 462 kts 60°
2026-05-06 17:19 37.87862 -109.52958 37014 ft 462 kts 60°
2026-05-06 17:20 37.90616 -109.45674 37043 ft 462 kts 61°
2026-05-06 17:20 37.93407 -109.38275 36996 ft 468 kts 61°
2026-05-06 17:21 37.96211 -109.30822 37014 ft 468 kts 60°
2026-05-06 17:21 37.98989 -109.23421 37006 ft 463 kts 60°
2026-05-06 17:22 38.01754 -109.16041 37001 ft 463 kts 60°
2026-05-06 17:22 38.04516 -109.08649 37011 ft 466 kts 61°
2026-05-06 17:23 38.07301 -109.01184 36985 ft 468 kts 61°
2026-05-06 17:23 38.10104 -108.93726 36993 ft 468 kts 59°
2026-05-06 17:24 38.13028 -108.86348 36984 ft 468 kts 60°
2026-05-06 17:24 38.15935 -108.78951 37000 ft 468 kts 60°
2026-05-06 17:25 38.18844 -108.71522 36979 ft 472 kts 60°
2026-05-06 17:25 38.21769 -108.64037 36979 ft 473 kts 60°
2026-05-06 17:26 38.24670 -108.56594 36997 ft 473 kts 60°
2026-05-06 17:26 38.27583 -108.49100 36992 ft 473 kts 60°
2026-05-06 17:27 38.30493 -108.41599 37017 ft 473 kts 60°
2026-05-06 17:27 38.33421 -108.34031 37006 ft 477 kts 60°
2026-05-06 17:28 38.36348 -108.26447 37019 ft 475 kts 60°
2026-05-06 17:28 38.39247 -108.18917 37052 ft 472 kts 60°
2026-05-06 17:29 38.42136 -108.11396 37070 ft 472 kts 60°
2026-05-06 17:29 38.45022 -108.03867 37111 ft 473 kts 60°
2026-05-06 17:30 38.47880 -107.96327 37096 ft 470 kts 60°
2026-05-06 17:30 38.49294 -107.92589 36859 ft 465 kts 60°
2026-05-06 17:30 38.50696 -107.88882 36603 ft 463 kts 60°
2026-05-06 17:30 38.52090 -107.85188 36353 ft 462 kts 60°
2026-05-06 17:31 38.53483 -107.81494 36117 ft 461 kts 60°
2026-05-06 17:31 38.54871 -107.77808 35737 ft 460 kts 60°
2026-05-06 17:31 38.56257 -107.74125 35518 ft 460 kts 60°
2026-05-06 17:31 38.57643 -107.70435 35292 ft 461 kts 60°
2026-05-06 17:32 38.59029 -107.66742 35047 ft 461 kts 60°
2026-05-06 17:32 38.60415 -107.63044 34818 ft 461 kts 59°
2026-05-06 17:32 38.61797 -107.59351 34587 ft 460 kts 59°
2026-05-06 17:32 38.63175 -107.55666 34367 ft 459 kts 59°
2026-05-06 17:33 38.64546 -107.51993 34141 ft 458 kts 59°
2026-05-06 17:33 38.65930 -107.48326 33921 ft 457 kts 58°
2026-05-06 17:33 38.67317 -107.44676 33659 ft 456 kts 58°
2026-05-06 17:33 38.68701 -107.41025 33399 ft 456 kts 58°
2026-05-06 17:34 38.70082 -107.37374 33170 ft 457 kts 59°
2026-05-06 17:34 38.71472 -107.33697 32921 ft 460 kts 59°
2026-05-06 17:34 38.72866 -107.30002 32638 ft 460 kts 59°
2026-05-06 17:34 38.74250 -107.26331 32402 ft 456 kts 59°
2026-05-06 17:35 38.75623 -107.22685 32154 ft 453 kts 59°
2026-05-06 17:35 38.76973 -107.19095 31923 ft 452 kts 59°
2026-05-06 17:35 38.78335 -107.15469 31662 ft 452 kts 59°
2026-05-06 17:36 38.81052 -107.08225 31187 ft 450 kts 59°
2026-05-06 17:36 38.82407 -107.04603 30985 ft 450 kts 59°
2026-05-06 17:36 38.83784 -107.00918 30722 ft 456 kts 59°
2026-05-06 17:36 38.85142 -106.97282 30492 ft 458 kts 60°
2026-05-06 17:37 38.86518 -106.93592 30267 ft 458 kts 60°
2026-05-06 17:37 38.87890 -106.89908 30034 ft 458 kts 60°
2026-05-06 17:37 38.89263 -106.86215 29780 ft 458 kts 60°
2026-05-06 17:37 38.90636 -106.82521 29507 ft 460 kts 60°
2026-05-06 17:38 38.92013 -106.78810 29215 ft 461 kts 60°
2026-05-06 17:38 38.93395 -106.75081 28954 ft 463 kts 60°
2026-05-06 17:38 38.94779 -106.71342 28680 ft 465 kts 60°
2026-05-06 17:38 38.96169 -106.67581 28428 ft 469 kts 61°
2026-05-06 17:39 38.97575 -106.63774 28119 ft 473 kts 61°
2026-05-06 17:39 38.98962 -106.60016 27868 ft 459 kts 61°
2026-05-06 17:39 39.00303 -106.56361 27624 ft 446 kts 61°
2026-05-06 17:39 39.01606 -106.52804 27366 ft 435 kts 61°
2026-05-06 17:40 39.02886 -106.49309 27116 ft 430 kts 62°
2026-05-06 17:40 39.04148 -106.45861 26881 ft 428 kts 62°
2026-05-06 17:40 39.05417 -106.42388 26607 ft 427 kts 62°
2026-05-06 17:40 39.06662 -106.38975 26360 ft 427 kts 62°
2026-05-06 17:41 39.07938 -106.35472 26094 ft 427 kts 62°
2026-05-06 17:41 39.09199 -106.32009 25849 ft 429 kts 63°
2026-05-06 17:41 39.10448 -106.28575 25604 ft 429 kts 63°
2026-05-06 17:41 39.11706 -106.25110 25345 ft 427 kts 63°
2026-05-06 17:42 39.12963 -106.21646 25090 ft 426 kts 63°
2026-05-06 17:42 39.14213 -106.18197 24835 ft 425 kts 63°
2026-05-06 17:42 39.15461 -106.14739 24571 ft 425 kts 63°
2026-05-06 17:42 39.16703 -106.11291 24321 ft 425 kts 63°
2026-05-06 17:43 39.17948 -106.07831 24059 ft 425 kts 64°
2026-05-06 17:43 39.19189 -106.04376 23817 ft 425 kts 64°
2026-05-06 17:43 39.20426 -106.00930 23555 ft 425 kts 64°
2026-05-06 17:43 39.21665 -105.97475 23247 ft 425 kts 64°
2026-05-06 17:44 39.22904 -105.94016 22946 ft 424 kts 64°
2026-05-06 17:44 39.24142 -105.90578 22669 ft 422 kts 64°
2026-05-06 17:44 39.25377 -105.87154 22374 ft 419 kts 64°
2026-05-06 17:44 39.26602 -105.83752 22087 ft 417 kts 64°
2026-05-06 17:45 39.27818 -105.80371 21801 ft 414 kts 64°
2026-05-06 17:45 39.29026 -105.77009 21535 ft 411 kts 64°
2026-05-06 17:45 39.30223 -105.73675 21258 ft 408 kts 64°
2026-05-06 17:45 39.31406 -105.70375 20979 ft 400 kts 64°
2026-05-06 17:46 39.32567 -105.67154 20706 ft 393 kts 63°
2026-05-06 17:46 39.33728 -105.63984 20464 ft 388 kts 63°
2026-05-06 17:46 39.34875 -105.60842 20196 ft 386 kts 63°
2026-05-06 17:46 39.36015 -105.57713 19926 ft 384 kts 63°
2026-05-06 17:47 39.37143 -105.54616 19672 ft 378 kts 63°
2026-05-06 17:47 39.38255 -105.51557 19419 ft 372 kts 63°
2026-05-06 17:47 39.39343 -105.48560 19184 ft 366 kts 63°
2026-05-06 17:47 39.40415 -105.45609 18937 ft 360 kts 63°
2026-05-06 17:48 39.41378 -105.42656 18674 ft 356 kts 74°
2026-05-06 17:48 39.41640 -105.39506 18431 ft 351 kts 90°
2026-05-06 17:48 39.41680 -105.36363 18147 ft 347 kts 89°
2026-05-06 17:48 39.41717 -105.33252 17738 ft 347 kts 89°
2026-05-06 17:49 39.41743 -105.30136 17282 ft 347 kts 89°
2026-05-06 17:49 39.41764 -105.27007 16829 ft 347 kts 89°
2026-05-06 17:49 39.41781 -105.23893 16438 ft 346 kts 89°
2026-05-06 17:49 39.41797 -105.20791 16078 ft 343 kts 89°
2026-05-06 17:50 39.41811 -105.17719 15727 ft 341 kts 89°
2026-05-06 17:50 39.41825 -105.14668 15364 ft 339 kts 90°
2026-05-06 17:50 39.41837 -105.11630 15009 ft 336 kts 90°
2026-05-06 17:50 39.41850 -105.08620 14665 ft 334 kts 90°
2026-05-06 17:51 39.41861 -105.05632 14308 ft 332 kts 90°
2026-05-06 17:51 39.41871 -105.02663 13963 ft 330 kts 90°
2026-05-06 17:51 39.41880 -104.99705 13570 ft 327 kts 90°
2026-05-06 17:51 39.41889 -104.96847 13204 ft 317 kts 90°
2026-05-06 17:52 39.41922 -104.94016 12950 ft 304 kts 85°
2026-05-06 17:52 39.42153 -104.91384 12658 ft 293 kts 83°
2026-05-06 17:52 39.42309 -104.89632 12444 ft 287 kts 83°
2026-05-06 17:52 39.42591 -104.86329 12077 ft 272 kts 83°
2026-05-06 17:53 39.42809 -104.83952 11814 ft 262 kts 83°
2026-05-06 17:53 39.43021 -104.81618 11563 ft 259 kts 83°
2026-05-06 17:53 39.43227 -104.79318 11314 ft 256 kts 83°
2026-05-06 17:53 39.43363 -104.77778 11151 ft 254 kts 83°
2026-05-06 17:54 39.43894 -104.74881 10833 ft 248 kts 67°
2026-05-06 17:54 39.44341 -104.73489 10667 ft 246 kts 66°
2026-05-06 17:54 39.45330 -104.71729 10390 ft 243 kts 37°
2026-05-06 17:54 39.46759 -104.70670 10173 ft 239 kts 27°
2026-05-06 17:55 39.48240 -104.69688 10024 ft 239 kts 24°
2026-05-06 17:55 39.49852 -104.69256 9978 ft 238 kts
2026-05-06 17:55 39.51518 -104.69208 10013 ft 241 kts
2026-05-06 17:55 39.53187 -104.69154 9998 ft 240 kts
2026-05-06 17:56 39.54861 -104.69115 9996 ft 241 kts
2026-05-06 17:56 39.56536 -104.69083 9994 ft 241 kts
2026-05-06 17:56 39.58209 -104.69056 10000 ft 237 kts
2026-05-06 17:56 39.59816 -104.69033 9910 ft 227 kts
2026-05-06 17:57 39.61385 -104.69012 9672 ft 224 kts
2026-05-06 17:57 39.62929 -104.68993 9438 ft 219 kts
2026-05-06 17:57 39.64416 -104.68974 9242 ft 209 kts
2026-05-06 17:57 39.65837 -104.68957 9035 ft 200 kts
2026-05-06 17:58 39.67182 -104.68941 8939 ft 186 kts
2026-05-06 17:58 39.68429 -104.68927 8808 ft 177 kts
2026-05-06 17:58 39.69680 -104.68912 8612 ft 182 kts
2026-05-06 17:58 39.70950 -104.68898 8402 ft 181 kts
2026-05-06 17:59 39.72176 -104.68883 8212 ft 173 kts
2026-05-06 17:59 39.73363 -104.68869 7962 ft 170 kts
2026-05-06 17:59 39.74539 -104.68855 7726 ft 168 kts
2026-05-06 17:59 39.75711 -104.68842 7532 ft 168 kts
2026-05-06 18:00 39.76869 -104.68828 7361 ft 165 kts
2026-05-06 18:00 39.78006 -104.68815 7160 ft 162 kts
2026-05-06 18:00 39.79130 -104.68802 6946 ft 161 kts
2026-05-06 18:00 39.80238 -104.68790 6738 ft 159 kts
2026-05-06 18:01 39.81344 -104.68777 6509 ft 159 kts
2026-05-06 18:01 39.82449 -104.68765 6245 ft 158 kts
2026-05-06 18:01 39.83540 -104.68752 5984 ft 156 kts
2026-05-06 18:01 39.84627 -104.68748 5809 ft 155 kts
2026-05-06 18:02 39.85690 -104.68727 5584 ft 151 kts
2026-05-06 18:02 39.86724 -104.68717 5376 ft 143 kts
2026-05-06 18:02 39.87531 -104.68705 5368 ft 80 kts
2026-05-06 18:02 39.87768 -104.68701 5369 ft 24 kts
2026-05-06 18:03 39.87935 -104.68699 5370 ft 25 kts
2026-05-06 18:03 39.88112 -104.68697 5369 ft 27 kts
2026-05-06 18:03 39.88307 -104.68696 5365 ft 30 kts
2026-05-06 18:03 39.88508 -104.68640 5366 ft 26 kts 22°
2026-05-06 18:04 39.88611 -104.68537 5368 ft 14 kts 79°
2026-05-06 18:04 39.88562 -104.68481 5367 ft 10 kts 175°
2026-05-06 18:04 39.88486 -104.68481 5366 ft 13 kts 180°
2026-05-06 18:04 39.88368 -104.68482 5367 ft 20 kts 180°
2026-05-06 18:05 39.88214 -104.68483 5365 ft 22 kts 180°
2026-05-06 18:05 39.88062 -104.68484 5366 ft 21 kts 180°
2026-05-06 18:05 39.87921 -104.68486 5366 ft 19 kts 180°
2026-05-06 18:05 39.87791 -104.68488 5367 ft 18 kts 181°
2026-05-06 18:06 39.87669 -104.68489 5367 ft 17 kts 180°
2026-05-06 18:06 39.87555 -104.68491 5366 ft 16 kts 180°
2026-05-06 18:06 39.87439 -104.68491 5367 ft 18 kts 180°
2026-05-06 18:06 39.87285 -104.68494 5368 ft 25 kts 181°
2026-05-06 18:07 39.87105 -104.68497 5366 ft 26 kts 180°
2026-05-06 18:07 39.86930 -104.68498 5366 ft 25 kts 180°
2026-05-06 18:07 39.86759 -104.68500 5366 ft 25 kts 180°
2026-05-06 18:07 39.86589 -104.68501 5367 ft 24 kts 180°
2026-05-06 18:08 39.86426 -104.68503 5367 ft 23 kts 180°
2026-05-06 18:08 39.86268 -104.68505 5368 ft 23 kts 180°
2026-05-06 18:08 39.86157 -104.68487 5367 ft 14 kts 137°
2026-05-06 18:08 39.86140 -104.68364 5368 ft 14 kts 91°
2026-05-06 18:09 39.86140 -104.68235 5367 ft 14 kts 90°
2026-05-06 18:09 39.86139 -104.68094 5365 ft 17 kts 90°
2026-05-06 18:09 39.86138 -104.67935 5368 ft 17 kts 90°
2026-05-06 18:09 39.86137 -104.67789 5368 ft 16 kts 90°
2026-05-06 18:10 39.86136 -104.67635 5368 ft 18 kts 90°
2026-05-06 18:10 39.86135 -104.67472 5367 ft 19 kts 91°
2026-05-06 18:10 39.86133 -104.67333 5366 ft 11 kts 89°
2026-05-06 18:10 39.86180 -104.67258 5367 ft 11 kts 12°
2026-05-06 18:11 39.86241 -104.67258 5367 ft 7 kts 356°
2026-05-06 18:11 39.86258 -104.67259 5367 ft 0 kts 356°